DELTA 1 DEB, 7023

Orbit data source: Space-Track

DELTA 1 DEB, 7023 is space debris in SSO originally from a launch on Tue, 06 Nov 1973 UTC launched from the Air Force Western Test Range (AFWTR). Debris objects in space refer to the collection of defunct objects orbiting the Earth. Examples of debris include non-operational satellites, rocket bodies, and fragments generated from explosions, collisions, or faulty payload assembly.

Loading next visibility...
Identifier
7023, 1973-086P
Orbit
SSO
Country
Flag of USUS
Related business
Manufacturer
Unknown
Mission
Spacecraft
Bus & Motor
Unknown
Mass
Unknown
Launch date (UTC)
1973-11-06 (52 years ago)
Launch vehicle
Unknown
Launch site
Air Force Western Test Range (AFWTR)
Object type
Payload
Rocket body
Debris
Shape & HBR
Unknown shape, 0.1 m
Radar Cross Section
Small (<0.1 m²)

Expand to show TLE details & history
Last TLE update: 1 day ago

TLE from 1 day ago
0 DELTA 1 DEB
1 07023U 73086P   25291.90616638  .00000048  00000-0  73610-3 0  9996
2 07023 102.3133 260.5308 0028554  94.6036 288.9514 12.36335651342598
Epoch: 2025-10-18T21:44Z
TLE epoch observation values (Epoch: 2025-10-18T21:44:52.775Z)
Latitude
22.69858°
Longitude
-98.5324°
Altitude
1,517.318 km
Speed
7.112 km/s
True Right ascension
17h 01m 16s
True Declination
22° 35' 17"
Sunlit
Object was in daylight at epoch
Visualization orbit readout
Latitude
Unknown
Longitude
Unknown
Altitude
Unknown
Speed
Unknown
Apparent Right ascension
Unknown
Apparent Declination
Unknown
Sunlit
N/A
Visualization observer readout
Local Sidereal Time
16:42:31
Azimuth
Unknown
Elevation
Unknown
Doppler factor
Unknown
Orbital elements
Apogee altitude
1,542.325 km
Perigee altitude
1,497.222 km
Semi-major axis
7,897.91 km
Eccentricity
0.00286
Inclination
102.3133°
RAAN
260.5308°
Arg. of periapsis
94.6036°
True anomaly
288.64157°
Mean anomaly
288.9514°
Eccentric anomaly
288.79652°
Mean motion
3.09225 °/min
Orbital period
116.42 mins
BSTAR
0.0007361
Loading maneuver chart data...
Computing Atmospheric mass density...
Loading historical data...
Loading historical data...
Loading historical data...
Loading historical data...
Loading historical data...
Loading historical data...
Loading historical data...

Documentation

Showing up to 5 results
|